"Period start","avg(HW err(1)/warn(2) (#))","avg(Visibility (m))","avg(Weather code (#))","avg(Precip intensity (mm/h))","min(HW err(1)/warn(2) (#))","max(HW err(1)/warn(2) (#))","std(HW err(1)/warn(2) (#))","med(HW err(1)/warn(2) (#))","min(Visibility (m))","max(Visibility (m))","std(Visibility (m))","med(Visibility (m))","min(Weather code (#))","max(Weather code (#))","std(Weather code (#))","med(Weather code (#))","min(Precip intensity (mm/h))","max(Precip intensity (mm/h))","std(Precip intensity (mm/h))","med(Precip intensity (mm/h))"
2016-10-07 08:10:00,2,50000,0,0.00,2,2,0,2,50000,50000,0,50000,0,0,0,0,0.00,0.00,0.00,0.00
2016-10-07 08:20:00,2,49893,0,0.00,2,2,0,2,48933,50000,320,50000,0,0,0,0,0.00,0.00,0.00,0.00
2016-10-07 08:30:00,2,50000,0,0.00,2,2,0,2,50000,50000,0,50000,0,0,0,0,0.00,0.00,0.00,0.00
2016-10-07 08:40:00,2,49143,0,0.00,2,2,0,2,46029,50000,1413,50000,0,0,0,0,0.00,0.00,0.00,0.00
2016-10-07 08:50:00,2,36710,15,0.09,2,2,0,2,3244,50000,20216,50000,0,71,24,0,0.00,0.75,0.22,0.00
2016-10-07 09:00:00,2,4088,71,0.31,2,2,0,2,3122,5849,766,4096,71,71,0,71,0.10,1.10,0.29,0.17
2016-10-07 09:10:00,2,2272,71,0.82,2,2,0,2,1536,3318,574,2062,71,71,0,71,0.25,2.20,0.60,0.55
2016-10-07 09:20:00,2,3798,71,0.30,2,2,0,2,1568,6128,1358,3777,71,71,0,71,0.10,0.70,0.20,0.23
2016-10-07 09:30:00,2,2539,71,0.76,2,2,0,2,1398,4045,851,2238,71,71,0,71,0.15,1.35,0.41,0.57
2016-10-07 09:40:00,2,3393,71,0.39,2,2,0,2,2418,5116,911,2994,71,71,0,71,0.10,0.60,0.16,0.42
2016-10-07 09:50:00,2,5671,72,0.22,2,2,0,2,3693,7847,1336,5592,67,77,4,71,0.10,0.40,0.10,0.17
2016-10-07 10:00:00,2,13694,49,0.10,2,2,0,2,9527,20931,3713,12302,41,67,12,41,0.05,0.20,0.05,0.10
2016-10-07 10:10:00,2,27253,46,0.03,2,2,0,2,16494,37986,6330,28856,41,54,6,41,0.00,0.10,0.03,0.03
2016-10-07 10:20:00,2,35715,22,0.03,2,2,0,2,27221,44645,6127,36268,0,54,26,0,0.00,0.20,0.06,0.00
2016-10-07 10:30:00,2,34936,0,0.00,2,2,0,2,27795,40974,4262,35365,0,0,0,0,0.00,0.00,0.00,0.00
2016-10-07 10:40:00,2,46369,0,0.00,2,2,0,2,37160,50000,3845,47695,0,0,0,0,0.00,0.00,0.00,0.00
2016-10-07 10:50:00,2,49426,0,0.00,2,2,0,2,45720,50000,1271,50000,0,0,0,0,0.00,0.00,0.00,0.00
2016-10-07 11:00:00,2,50000,0,0.00,2,2,0,2,50000,50000,0,50000,0,0,0,0,0.00,0.00,0.00,0.00
2016-10-07 11:10:00,2,50000,0,0.00,2,2,0,2,50000,50000,0,50000,0,0,0,0,0.00,0.00,0.00,0.00
2016-10-07 11:20:00,2,50000,0,0.00,2,2,0,2,50000,50000,0,50000,0,0,0,0,0.00,0.00,0.00,0.00
2016-10-07 11:30:00,2,50000,0,0.00,2,2,0,2,50000,50000,0,50000,0,0,0,0,0.00,0.00,0.00,0.00
2016-10-07 11:40:00,2,50000,0,0.00,2,2,0,2,50000,50000,0,50000,0,0,0,0,0.00,0.00,0.00,0.00
2016-10-07 11:50:00,2,50000,0,0.00,2,2,0,2,50000,50000,0,50000,0,0,0,0,0.00,0.00,0.00,0.00
2016-10-07 12:00:00,2,50000,0,0.00,2,2,0,2,50000,50000,0,50000,0,0,0,0,0.00,0.00,0.00,0.00
2016-10-07 12:10:00,2,50000,0,0.00,2,2,0,2,50000,50000,0,50000,0,0,0,0,0.00,0.00,0.00,0.00
2016-10-07 12:20:00,2,50000,0,0.00,2,2,0,2,50000,50000,0,50000,0,0,0,0,0.00,0.00,0.00,0.00
2016-10-07 12:30:00,2,50000,0,0.00,2,2,0,2,50000,50000,0,50000,0,0,0,0,0.00,0.00,0.00,0.00
2016-10-07 12:40:00,2,50000,0,0.00,2,2,0,2,50000,50000,0,50000,0,0,0,0,0.00,0.00,0.00,0.00
2016-10-07 12:50:00,2,49792,0,0.00,2,2,0,2,48061,50000,578,50000,0,0,0,0,0.00,0.00,0.00,0.00
2016-10-07 13:00:00,2,50000,0,0.00,2,2,0,2,50000,50000,0,50000,0,0,0,0,0.00,0.00,0.00,0.00
2016-10-07 13:10:00,2,50000,0,0.00,2,2,0,2,50000,50000,0,50000,0,0,0,0,0.00,0.00,0.00,0.00
2016-10-07 13:20:00,2,50000,0,0.00,2,2,0,2,50000,50000,0,50000,0,0,0,0,0.00,0.00,0.00,0.00
2016-10-07 13:30:00,2,50000,0,0.00,2,2,0,2,50000,50000,0,50000,0,0,0,0,0.00,0.00,0.00,0.00
2016-10-07 13:40:00,2,50000,0,0.00,2,2,0,2,50000,50000,0,50000,0,0,0,0,0.00,0.00,0.00,0.00
2016-10-07 13:50:00,2,50000,0,0.00,2,2,0,2,50000,50000,0,50000,0,0,0,0,0.00,0.00,0.00,0.00
2016-10-07 14:00:00,2,50000,0,0.00,2,2,0,2,50000,50000,0,50000,0,0,0,0,0.00,0.00,0.00,0.00
2016-10-07 14:10:00,2,50000,0,0.00,2,2,0,2,50000,50000,0,50000,0,0,0,0,0.00,0.00,0.00,0.00
2016-10-07 14:20:00,2,50000,0,0.00,2,2,0,2,50000,50000,0,50000,0,0,0,0,0.00,0.00,0.00,0.00
2016-10-07 14:30:00,2,50000,0,0.00,2,2,0,2,50000,50000,0,50000,0,0,0,0,0.00,0.00,0.00,0.00
2016-10-07 14:40:00,2,50000,0,0.00,2,2,0,2,50000,50000,0,50000,0,0,0,0,0.00,0.00,0.00,0.00
2016-10-07 14:50:00,2,50000,0,0.00,2,2,0,2,50000,50000,0,50000,0,0,0,0,0.00,0.00,0.00,0.00
2016-10-07 15:00:00,2,50000,0,0.00,2,2,0,2,50000,50000,0,50000,0,0,0,0,0.00,0.00,0.00,0.00
2016-10-07 15:10:00,2,50000,0,0.00,2,2,0,2,50000,50000,0,50000,0,0,0,0,0.00,0.00,0.00,0.00
2016-10-07 15:20:00,2,50000,0,0.00,2,2,0,2,50000,50000,0,50000,0,0,0,0,0.00,0.00,0.00,0.00
2016-10-07 15:30:00,2,50000,0,0.00,2,2,0,2,50000,50000,0,50000,0,0,0,0,0.00,0.00,0.00,0.00
2016-10-07 15:40:00,2,50000,0,0.00,2,2,0,2,50000,50000,0,50000,0,0,0,0,0.00,0.00,0.00,0.00
2016-10-07 15:50:00,2,50000,0,0.00,2,2,0,2,50000,50000,0,50000,0,0,0,0,0.00,0.00,0.00,0.00
2016-10-07 16:00:00,2,50000,0,0.00,2,2,0,2,50000,50000,0,50000,0,0,0,0,0.00,0.00,0.00,0.00
2016-10-07 16:10:00,2,50000,0,0.00,2,2,0,2,50000,50000,0,50000,0,0,0,0,0.00,0.00,0.00,0.00
2016-10-07 16:20:00,2,49144,0,0.00,2,2,0,2,41444,50000,2567,50000,0,0,0,0,0.00,0.00,0.00,0.00
2016-10-07 16:30:00,2,43892,0,0.00,2,2,0,2,38757,50000,4094,43811,0,0,0,0,0.00,0.00,0.00,0.00
2016-10-07 16:40:00,2,50000,0,0.00,2,2,0,2,50000,50000,0,50000,0,0,0,0,0.00,0.00,0.00,0.00
2016-10-07 16:50:00,2,50000,0,0.00,2,2,0,2,50000,50000,0,50000,0,0,0,0,0.00,0.00,0.00,0.00
2016-10-07 17:00:00,2,50000,0,0.00,2,2,0,2,50000,50000,0,50000,0,0,0,0,0.00,0.00,0.00,0.00
2016-10-07 17:10:00,2,50000,0,0.00,2,2,0,2,50000,50000,0,50000,0,0,0,0,0.00,0.00,0.00,0.00
2016-10-07 17:20:00,2,49905,0,0.00,2,2,0,2,49046,50000,286,50000,0,0,0,0,0.00,0.00,0.00,0.00
2016-10-07 17:30:00,2,49906,0,0.00,2,2,0,2,49056,50000,283,50000,0,0,0,0,0.00,0.00,0.00,0.00
2016-10-07 17:40:00,2,14742,0,0.00,2,2,0,2,5093,48808,13265,8362,0,0,0,0,0.00,0.00,0.00,0.00
2016-10-07 17:50:00,2,10474,10,0.00,2,2,0,2,5225,18603,4961,9723,10,10,0,10,0.00,0.00,0.00,0.00
2016-10-07 18:00:00,2,32653,5,0.00,2,2,0,2,8095,50000,14995,33596,0,10,5,5,0.00,0.00,0.00,0.00
2016-10-07 18:10:00,2,12300,0,0.00,2,2,0,2,4991,21648,4596,12544,0,0,0,0,0.00,0.00,0.00,0.00
2016-10-07 18:20:00,2,23476,0,0.00,2,2,0,2,7928,50000,15709,14906,0,0,0,0,0.00,0.00,0.00,0.00
2016-10-07 18:30:00,2,50000,0,0.00,2,2,0,2,50000,50000,0,50000,0,0,0,0,0.00,0.00,0.00,0.00
2016-10-07 18:40:00,2,50000,0,0.00,2,2,0,2,50000,50000,0,50000,0,0,0,0,0.00,0.00,0.00,0.00
2016-10-07 18:50:00,2,49534,0,0.00,2,2,0,2,47972,50000,731,50000,0,0,0,0,0.00,0.00,0.00,0.00
2016-10-07 19:00:00,2,43989,0,0.00,2,2,0,2,17907,50000,10759,49980,0,0,0,0,0.00,0.00,0.00,0.00
2016-10-07 19:10:00,2,11739,0,0.00,2,2,0,2,3993,20017,4990,10478,0,0,0,0,0.00,0.00,0.00,0.00
2016-10-07 19:20:00,2,4144,10,0.00,2,2,0,2,2581,5464,900,4000,10,10,0,10,0.00,0.00,0.00,0.00
2016-10-07 19:30:00,2,2565,10,0.00,2,2,0,2,1239,4130,843,2593,10,10,0,10,0.00,0.00,0.00,0.00
2016-10-07 19:40:00,2,5896,10,0.00,2,2,0,2,2118,10200,2334,6108,10,10,0,10,0.00,0.00,0.00,0.00
2016-10-07 19:50:00,2,10810,10,0.00,2,2,0,2,7498,15323,1921,10369,10,10,0,10,0.00,0.00,0.00,0.00
2016-10-07 20:00:00,2,8272,6,0.00,2,2,0,2,5250,14893,2837,7634,0,10,5,10,0.00,0.00,0.00,0.00
2016-10-07 20:10:00,2,4525,10,0.00,2,2,0,2,2128,6528,1554,4932,10,10,0,10,0.00,0.00,0.00,0.00
2016-10-07 20:20:00,2,3285,10,0.00,2,2,0,2,2039,5756,1164,2739,10,10,0,10,0.00,0.00,0.00,0.00
2016-10-07 20:30:00,2,9198,10,0.00,2,2,0,2,6956,13853,2407,7982,10,10,0,10,0.00,0.00,0.00,0.00
2016-10-07 20:40:00,2,9044,10,0.00,2,2,0,2,6925,13026,1808,8885,10,10,0,10,0.00,0.00,0.00,0.00
2016-10-07 20:50:00,2,3864,10,0.00,2,2,0,2,1753,7327,1962,3003,10,10,0,10,0.00,0.00,0.00,0.00
2016-10-07 21:00:00,2,3900,10,0.00,2,2,0,2,1149,5580,1543,4632,10,10,0,10,0.00,0.00,0.00,0.00
2016-10-07 21:10:00,2,3155,10,0.00,2,2,0,2,2279,4537,830,2937,10,10,0,10,0.00,0.00,0.00,0.00
2016-10-07 21:20:00,2,10153,10,0.00,2,2,0,2,3624,25317,6339,9162,10,10,0,10,0.00,0.00,0.00,0.00
2016-10-07 21:30:00,2,25224,5,0.00,2,2,0,2,13703,49467,12376,18378,0,10,5,5,0.00,0.00,0.00,0.00
2016-10-07 21:40:00,2,14499,0,0.00,2,2,0,2,7931,26705,6114,12930,0,0,0,0,0.00,0.00,0.00,0.00
2016-10-07 21:50:00,2,15725,0,0.00,2,2,0,2,10119,27481,4641,15394,0,0,0,0,0.00,0.00,0.00,0.00
2016-10-07 22:00:00,2,30870,0,0.00,2,2,0,2,18936,49776,9634,29283,0,0,0,0,0.00,0.00,0.00,0.00
2016-10-07 22:10:00,2,49837,0,0.00,2,2,0,2,48533,50000,461,50000,0,0,0,0,0.00,0.00,0.00,0.00
2016-10-07 22:20:00,2,49973,0,0.00,2,2,0,2,49758,50000,76,50000,0,0,0,0,0.00,0.00,0.00,0.00
2016-10-07 22:30:00,2,50000,0,0.00,2,2,0,2,50000,50000,0,50000,0,0,0,0,0.00,0.00,0.00,0.00
2016-10-07 22:40:00,2,50000,0,0.00,2,2,0,2,50000,50000,0,50000,0,0,0,0,0.00,0.00,0.00,0.00
2016-10-07 22:50:00,2,50000,0,0.00,2,2,0,2,50000,50000,0,50000,0,0,0,0,0.00,0.00,0.00,0.00
2016-10-07 23:00:00,2,49995,0,0.00,2,2,0,2,49953,50000,15,50000,0,0,0,0,0.00,0.00,0.00,0.00
2016-10-07 23:10:00,2,48863,0,0.00,2,2,0,2,45572,50000,1723,50000,0,0,0,0,0.00,0.00,0.00,0.00
2016-10-07 23:20:00,2,48756,0,0.00,2,2,0,2,44861,50000,1764,49512,0,0,0,0,0.00,0.00,0.00,0.00
2016-10-07 23:30:00,2,50000,0,0.00,2,2,0,2,50000,50000,0,50000,0,0,0,0,0.00,0.00,0.00,0.00
2016-10-07 23:40:00,2,47532,0,0.00,2,2,0,2,40492,50000,3815,50000,0,0,0,0,0.00,0.00,0.00,0.00
2016-10-07 23:50:00,2,49516,0,0.00,2,2,0,2,48151,50000,669,50000,0,0,0,0,0.00,0.00,0.00,0.00
